This is the latest recevied weather packets stored in our database for station/object N4HAC. If no packets are shown the sender has not sent any weather packets the latest 10 day(s).
| Time | Temp. | Humidity | Pressure | Rain* | Wind** | Luminosity | Snow |
|---|---|---|---|---|---|---|---|
| 1777813430 | 8.33° C | 53% | 1012.6 hPa | 0 mm | - | 437 W/m² | - |
| 1777813127 | 7.78° C | 54% | 1012.6 hPa | 0 mm | - | 409 W/m² | - |
| 1777812826 | 7.78° C | 55% | 1012.6 hPa | 0 mm | - | 364 W/m² | - |
| 1777812522 | 7.78° C | 57% | 1012.8 hPa | 0 mm | - | 333 W/m² | - |
| 1777812219 | 7.22° C | 55% | 1012.4 hPa | 0 mm | - | 299 W/m² | - |
| 1777811917 | 7.22° C | 56% | 1012.6 hPa | 0 mm | - | 279 W/m² | - |
| 1777811616 | 7.22° C | 57% | 1012.6 hPa | 0 mm | - | 266 W/m² | - |
| 1777811311 | 7.22° C | 57% | 1012.4 hPa | 0 mm | - | 257 W/m² | - |
| 1777811008 | 7.22° C | 57% | 1012.5 hPa | 0 mm | - | 261 W/m² | - |
| 1777810706 | 7.22° C | 59% | 1012.4 hPa | 0 mm | - | 268 W/m² | - |
| 1777810402 | 7.22° C | 58% | 1012.6 hPa | 0 mm | - | 264 W/m² | - |
| 1777810098 | 7.22° C | 59% | 1012.4 hPa | 0 mm | - | 250 W/m² | - |
| 1777809796 | 6.67° C | 59% | 1012.4 hPa | 0 mm | - | 228 W/m² | - |
| 1777809493 | 7.22° C | 60% | 1012.3 hPa | 0 mm | - | 208 W/m² | - |
| 1777809191 | 6.67° C | 60% | 1012.3 hPa | 0 mm | - | 184 W/m² | - |
| 1777808889 | 6.67° C | 62% | 1012.3 hPa | 0 mm | - | 164 W/m² | - |
| 1777808585 | 6.67° C | 66% | 1012 hPa | 0 mm | - | 149 W/m² | - |
| 1777808282 | 6.67° C | 70% | 1012.1 hPa | 0 mm | - | 138 W/m² | - |
| 1777807981 | 6.11° C | 64% | 1012.3 hPa | 0 mm | - | 134 W/m² | - |
| 1777807678 | 6.11° C | 69% | 1012 hPa | 0 mm | - | 122 W/m² | - |
| 1777807376 | 6.67° C | 69% | 1012.1 hPa | 0 mm | - | 108 W/m² | - |
| 1777807071 | 5.56° C | 73% | 1011.7 hPa | 0 mm | - | 92 W/m² | - |
| 1777806769 | 6.11° C | 75% | 1011.9 hPa | 0 mm | - | 80 W/m² | - |
| 1777806464 | 5.56° C | 73% | 1011.7 hPa | 0 mm | - | 68 W/m² | - |
| 1777806161 | 5° C | 71% | 1011.4 hPa | 0 mm | - | 50 W/m² | - |
* Rain latest hour (hover to see other rain measurements)
** Current wind speed in m/s (hover to see current wind gust speed)